SCP
0 0 0 0 0 0 0 0 0 0 0 0 0 0 0 0 0 0 0 0 0 0
0 0 0 0 0 0 0 0 0 0 0 0 0 0 0 0 0 0 0 0 0 0
0 0 0 0 0 0 0 0 0 0 0 0 0 0 0 0 0 0 0 0 0 0
0 0 0 0 0 0 0 0 0 0 0 0 0 0 0 0 0 0 0 0 0 0
0 0 0 0 0 0 0 0 0 0 0 0 0 0 0 0 0 0 0 0 0 0
0 0 0 0 0 0 0 0 0 0 0 0 0 0 0 0 0 0 0 0 0 0
0 0 0 0 0 0 0 0 0 0 0 0 0 0 0 0 0 0 0 0 0 0
0 0 0 0 0 0 0 0 0 0 0 0 0 0 0 0 0 0 0 0 0 0
0 0 0 0 0 0 0 0 0 0 0 0 0 0 0 0 0 0 0 0 0 0
0 0 0 0 0 0 0 0 0 0 0 0 0 0 0 0 0 0 0 0 0 0
0 0 0 0 0 0 0 0 0 0 0 0 0 0 0 0 0 0 0 0 0 0
0 0 0 0 0 0 0 0 0 0 0 0 0 0 0 0 0 0 0 0 0 0
0 0 0 0 0 0 0 0 0 0 0 0 0 0 0 0 0 0 0 0 0 0
0 0 0 0 0 0 0 0 0 0 0 0 0 0 0 0 0 0 0 0 0 0
Wind_Speed_500mb
31 22 17 16 13 10 13 18 24 29 26 23 22 24 26 27 27 27 27 27 28 29
29 25 22 18 16 23 29 31 23 21 18 19 22 24 25 26 27 27 28 29 30 30
20 14 10 11 12 23 23 20 15 15 17 20 23 24 23 25 28 29 32 33 33 33
7 2 5 19 16 16 14 14 14 16 17 20 21 22 25 27 29 31 32 32 32 33
12 22 20 21 15 14 15 15 16 16 18 20 20 23 25 27 29 29 31 32 34 34
25 22 20 17 15 16 18 16 16 17 18 20 23 25 27 28 29 31 33 33 34 35
25 23 21 19 20 20 20 18 17 18 19 22 25 27 28 30 30 31 33 35 35 37
29 26 23 24 24 23 21 18 19 20 22 25 28 28 28 31 32 31 33 35 34 37
32 29 28 29 27 24 21 20 22 23 24 28 31 31 30 30 32 33 35 35 35 38
34 32 33 31 30 27 24 23 25 27 29 30 30 32 32 32 33 35 37 37 37 38
37 37 35 33 31 29 28 28 30 32 32 32 30 32 34 34 35 37 36 38 37 37
41 39 37 35 34 33 33 34 35 35 35 34 32 34 36 36 37 37 36 34 34 38
41 41 39 37 38 38 39 40 40 38 36 35 35 36 39 40 39 36 33 31 33 37
41 40 40 43 45 44 46 45 43 41 39 37 37 39 40 41 38 36 34 33 35 36
Wind_Direction_500mb
135 133 129 110 89 59 24 356 334 328 328 336 346 349 348 346 346 347 347 348 350 350
126 105 86 69 20 335 323 309 304 313 328 336 343 343 343 341 341 343 346 349 350 350
78 60 23 349 312 283 278 279 302 317 329 334 339 338 338 339 343 346 348 348 348 348
53 105 297 270 254 255 285 300 310 323 328 331 333 333 338 342 342 344 344 342 340 341
196 233 236 236 257 283 292 300 309 316 319 323 328 334 335 336 336 335 334 334 335 336
233 240 237 249 267 278 281 290 300 309 318 322 328 327 327 326 327 328 328 330 329 327
237 238 243 255 267 271 277 286 300 307 314 317 318 319 317 317 322 325 325 322 320 323
237 240 248 258 263 268 276 287 297 303 309 312 308 307 311 316 320 321 317 313 315 321
240 242 249 258 264 268 274 288 292 297 299 299 304 310 310 312 314 314 309 309 314 317
242 246 251 259 264 269 276 283 286 289 287 292 300 305 309 310 309 309 307 308 312 315
245 248 254 260 267 274 276 276 277 280 285 290 297 304 306 308 307 305 306 308 310 314
248 253 259 264 268 272 272 271 273 276 282 289 296 301 306 303 300 301 301 302 313 320
251 256 264 271 273 272 269 268 270 274 282 288 295 302 298 295 295 295 300 314 313 315
259 267 274 275 274 271 266 267 271 276 281 286 293 293 293 294 297 296 304 305 306 317
Wind_Speed_850mb
31 22 17 16 13 10 13 18 24 29 26 23 22 24 26 27 27 27 27 27 28 29
29 25 22 18 16 23 29 31 23 21 18 19 22 24 25 26 27 27 28 29 30 30
20 14 10 11 12 23 23 20 15 15 17 20 23 24 23 25 28 29 32 33 33 33
7 2 5 19 16 16 14 14 14 16 17 20 21 22 25 27 29 31 32 32 32 33
12 22 20 21 15 14 15 15 16 16 18 20 20 23 25 27 29 29 31 32 34 34
25 22 20 17 15 16 18 16 16 17 18 20 23 25 27 28 29 31 33 33 34 35
25 23 21 19 20 20 20 18 17 18 19 22 25 27 28 30 30 31 33 35 35 37
29 26 23 24 24 23 21 18 19 20 22 25 28 28 28 31 32 31 33 35 34 37
32 29 28 29 27 24 21 20 22 23 24 28 31 31 30 30 32 33 35 35 35 38
34 32 33 31 30 27 24 23 25 27 29 30 30 32 32 32 33 35 37 37 37 38
37 37 35 33 31 29 28 28 30 32 32 32 30 32 34 34 35 37 36 38 37 37
41 39 37 35 34 33 33 34 35 35 35 34 32 34 36 36 37 37 36 34 34 38
41 41 39 37 38 38 39 40 40 38 36 35 35 36 39 40 39 36 33 31 33 37
41 40 40 43 45 44 46 45 43 41 39 37 37 39 40 41 38 36 34 33 35 36
Wind_Direction_850mb
135 133 129 110 89 59 24 356 334 328 328 336 346 349 348 346 346 347 347 348 350 350
126 105 86 69 20 335 323 309 304 313 328 336 343 343 343 341 341 343 346 349 350 350
78 60 23 349 312 283 278 279 302 317 329 334 339 338 338 339 343 346 348 348 348 348
53 105 297 270 254 255 285 300 310 323 328 331 333 333 338 342 342 344 344 342 340 341
196 233 236 236 257 283 292 300 309 316 319 323 328 334 335 336 336 335 334 334 335 336
233 240 237 249 267 278 281 290 300 309 318 322 328 327 327 326 327 328 328 330 329 327
237 238 243 255 267 271 277 286 300 307 314 317 318 319 317 317 322 325 325 322 320 323
237 240 248 258 263 268 276 287 297 303 309 312 308 307 311 316 320 321 317 313 315 321
240 242 249 258 264 268 274 288 292 297 299 299 304 310 310 312 314 314 309 309 314 317
242 246 251 259 264 269 276 283 286 289 287 292 300 305 309 310 309 309 307 308 312 315
245 248 254 260 267 274 276 276 277 280 285 290 297 304 306 308 307 305 306 308 310 314
248 253 259 264 268 272 272 271 273 276 282 289 296 301 306 303 300 301 301 302 313 320
251 256 264 271 273 272 269 268 270 274 282 288 295 302 298 295 295 295 300 314 313 315
259 267 274 275 274 271 266 267 271 276 281 286 293 293 293 294 297 296 304 305 306 317